Tillbaka till svenska Fidonet
English   Information   Debug  
FILM   0/18
FNEWS_PUBLISH   5034
FN_SYSOP   42247
FN_SYSOP_OLD1   71952
FTP_FIDO   0/2
FTSC_PUBLIC   0/13979
FUNNY   0/4886
GENEALOGY.EUR   0/71
GET_INFO   105
GOLDED   0/408
HAM   2247/16786
HOLYSMOKE   0/6791
HOT_SITES   0/1
HTMLEDIT   0/71
HUB203   466
HUB_100   264
HUB_400   39
HUMOR   0/29
IC   0/2851
INTERNET   0/424
INTERUSER   0/3
IP_CONNECT   719
JAMNNTPD   0/233
JAMTLAND   0/47
KATTY_KORNER   0/41
LAN   0/16
LINUX-USER   0/19
LINUXHELP   0/1155
LINUX   0/22427
LINUX_BBS   0/957
mail   18.68
mail_fore_ok   249
MENSA   0/341
MODERATOR   0/102
MONTE   0/992
MOSCOW_OKLAHOMA   0/1245
MUFFIN   0/783
MUSIC   0/321
N203_STAT   938
N203_SYSCHAT   313
NET203   321
NET204   69
NET_DEV   0/10
NORD.ADMIN   0/101
NORD.CHAT   0/2572
NORD.FIDONET   189
NORD.HARDWARE   0/28
NORD.KULTUR   0/114
NORD.PROG   0/32
NORD.SOFTWARE   0/88
NORD.TEKNIK   0/58
NORD   0/453
OCCULT_CHAT   0/93
OS2BBS   0/787
OS2DOSBBS   0/580
OS2HW   0/42
OS2INET   0/37
OS2LAN   0/134
OS2PROG   0/36
OS2REXX   0/113
OS2USER-L   207
OS2   0/4835
OSDEBATE   0/18996
PASCAL   0/490
PERL   0/457
PHP   0/45
POINTS   0/405
POLITICS   15125/29554
POL_INC   0/14731
PSION   103
R20_ADMIN   1133
R20_AMATORRADIO   0/2
R20_BEST_OF_FIDONET   16
R20_CHAT   0/897
R20_DEPP   0/3
R20_DEV   400
R20_ECHO2   1933
R20_ECHOPRES   0/35
R20_ESTAT   0/719
R20_FIDONETPROG...
...RAM.MYPOINT
  0/2
R20_FIDONETPROGRAM   0/22
R20_FIDONET   0/248
R20_FILEFIND   0/24
R20_FILEFOUND   0/22
R20_HIFI   0/3
R20_INFO2   3827
R20_INTERNET   0/12940
R20_INTRESSE   0/60
R20_INTR_KOM   0/99
R20_KANDIDAT.CHAT   42
R20_KANDIDAT   28
R20_KOM_DEV   112
R20_KONTROLL   0/13360
R20_KORSET   0/18
R20_LOKALTRAFIK   0/24
R20_MODERATOR   0/1852
R20_NC   76
R20_NET200   245
R20_NETWORK.OTH...
...ERNETS
  0/13
R20_OPERATIVSYS...
...TEM.LINUX
  0/44
R20_PROGRAMVAROR   0/1
R20_REC2NEC   534
R20_SFOSM   0/341
R20_SF   0/108
R20_SPRAK.ENGLISH   0/1
R20_SQUISH   107
R20_TEST   2
R20_WORST_OF_FIDONET   20
RAR   0/9
RA_MULTI   106
RA_UTIL   0/162
REGCON.EUR   0/2072
REGCON   0/13
SCIENCE   0/1206
SF   0/239
SHAREWARE_SUPPORT   0/5146
SHAREWRE   0/14
SIMPSONS   0/169
STATS_OLD1   966/2539.065
STATS_OLD2   0/2530
STATS_OLD3   0/2395.095
STATS_OLD4   0/1692.25
SURVIVOR   0/495
SYSOPS_CORNER   0/3
SYSOP   0/84
TAGLINES   0/112
TEAMOS2   0/4530
TECH   2092/2617
TEST.444   0/105
TRAPDOOR   0/19
TREK   0/755
TUB   0/290
UFO   0/40
UNIX   0/1316
USA_EURLINK   0/102
USR_MODEMS   0/1
VATICAN   0/2740
VIETNAM_VETS   0/14
VIRUS   0/378
VIRUS_INFO   0/201
VISUAL_BASIC   0/473
WHITEHOUSE   0/5187
WIN2000   0/101
WIN32   0/30
WIN95   4100/4291
WIN95_OLD1   64355/70272
WINDOWS   0/1517
WWB_SYSOP   0/419
WWB_TECH   0/810
ZCC-PUBLIC   0/1
ZEC   4

 
4DOS   0/134
ABORTION   0/7
ALASKA_CHAT   0/506
ALLFIX_FILE   0/1313
ALLFIX_FILE_OLD1   0/7997
ALT_DOS   0/152
AMATEUR_RADIO   0/1039
AMIGASALE   0/14
AMIGA   0/331
AMIGA_INT   0/1
AMIGA_PROG   0/20
AMIGA_SYSOP   0/26
ANIME   0/15
ARGUS   0/924
ASCII_ART   0/340
ASIAN_LINK   0/651
ASTRONOMY   0/417
AUDIO   0/92
AUTOMOBILE_RACING   0/105
BABYLON5   0/17862
BAG   135
BATPOWER   0/361
BBBS.ENGLISH   0/382
BBSLAW   0/109
BBS_ADS   0/5290
BBS_INTERNET   0/507
BIBLE   0/3563
BINKD   0/1119
BINKLEY   0/215
BLUEWAVE   0/2173
CABLE_MODEMS   0/25
CBM   0/46
CDRECORD   0/66
CDROM   0/20
CLASSIC_COMPUTER   0/378
COMICS   0/15
CONSPRCY   0/899
COOKING   42383
COOKING_OLD1   0/24719
COOKING_OLD2   29717/40862
COOKING_OLD3   0/37489
COOKING_OLD4   18957/35496
COOKING_OLD5   9370
C_ECHO   0/189
C_PLUSPLUS   0/31
DIRTY_DOZEN   0/201
DOORGAMES   0/2388
DOS_INTERNET   0/196
duplikat   6102
ECHOLIST   13113/18295
EC_SUPPORT   0/318
ELECTRONICS   0/359
ELEKTRONIK.GER   1534
ENET.LINGUISTIC   0/13
ENET.POLITICS   0/4
ENET.SOFT   0/11701
ENET.SYSOP   34409
ENET.TALKS   0/32
ENGLISH_TUTOR   0/2000
EVOLUTION   0/1335
FDECHO   0/217
FDN_ANNOUNCE   4576/7068
FIDONEWS   25225
FIDONEWS_OLD1   0/49742
FIDONEWS_OLD2   0/35949
FIDONEWS_OLD3   0/30874
FIDONEWS_OLD4   0/37224
FIDO_SYSOP   12977
FIDO_UTIL   0/180
FILEFIND   0/209
FILEGATE   0/212
Möte HAM, 16786 texter
 lista första sista föregående nästa
Text 3045, 787 rader
Skriven 2009-06-25 23:00:26 av Amsat List (1:323/120.0)
Ärende: [keps]  orb09176.amsa
=============================
[keps]  orb09176.amsa

Return-Path: <keps-bounces@amsat.org>
X-Rcpt: craig.healy@chowda.com
X-UIDL: 1245983705.22033

SB KEPS @ AMSAT  $ORB09176.O
Orbital Elements  09176.OSCAR

HR AMSAT ORBITAL ELEMENTS FOR OSCAR SATELLITES
FROM WA5QGD FORT WORTH,TX June 25, 2009
Send Subscribe/unsubscribe to KEPS at 
http://www.amsat.org/mailman/listinfo/keps
BID: ORB09176.O
TO ALL RADIO AMATEURS BT

Satellite: AO-07
Catalog number: 07530
Epoch time:      09175.75015012
Element set:     512
Inclination:      101.4266 deg
RA of node:       200.1487 deg
Eccentricity:    0.0011548
Arg of perigee:   253.4118 deg
Mean anomaly:     106.5685 deg
Mean motion:   12.53575790 rev/day
Decay rate:       -2.7e-07 rev/day^2
Epoch rev:           58366
Checksum:              282

Satellite: FO-29
Catalog number: 24278
Epoch time:      09175.76747098
Element set:    0086
Inclination:      098.5539 deg
RA of node:       048.7848 deg
Eccentricity:    0.0350587
Arg of perigee:   330.9181 deg
Mean anomaly:     027.2821 deg
Mean motion:   13.52944157 rev/day
Decay rate:       -3.7e-07 rev/day^2
Epoch rev:           63477
Checksum:              361

Satellite: SO-33
Catalog number: 25509
Epoch time:      09175.88466058
Element set:    0484
Inclination:      031.4322 deg
RA of node:       008.9480 deg
Eccentricity:    0.0354276
Arg of perigee:   045.8279 deg
Mean anomaly:     317.0947 deg
Mean motion:   14.28254882 rev/day
Decay rate:       3.81e-06 rev/day^2
Epoch rev:           55693
Checksum:              341

Satellite: RS-22
Catalog number: 27939
Epoch time:      09175.58345773
Element set:    0824
Inclination:      097.9444 deg
RA of node:       050.1848 deg
Eccentricity:    0.0014639
Arg of perigee:   107.5940 deg
Mean anomaly:     252.6873 deg
Mean motion:   14.63325076 rev/day
Decay rate:       1.53e-06 rev/day^2
Epoch rev:           30665
Checksum:              333

Satellite: VO-52
Catalog number: 28650
Epoch time:      09175.34334044
Element set:    0257
Inclination:      097.7424 deg
RA of node:       236.6888 deg
Eccentricity:    0.0027183
Arg of perigee:   008.8245 deg
Mean anomaly:     351.3438 deg
Mean motion:   14.81596988 rev/day
Decay rate:       3.76e-06 rev/day^2
Epoch rev:           22370
Checksum:              337

/EX
SB KEPS @ AMSAT  $ORB09176.D
Orbital Elements  09176.MICROS

HR AMSAT ORBITAL ELEMENTS FOR THE MICROSATS
FROM WA5QGD FORT WORTH,TX June 25, 2009
Send Subscribe/unsubscribe to KEPS at 
http://www.amsat.org/mailman/listinfo/keps
BID: ORB09176.D
TO ALL RADIO AMATEURS BT

Satellite: AO-16
Catalog number: 20439
Epoch time:      09175.47168576
Element set:    0635
Inclination:      098.2785 deg
RA of node:       143.5419 deg
Eccentricity:    0.0011258
Arg of perigee:   144.6504 deg
Mean anomaly:     215.5414 deg
Mean motion:   14.31826786 rev/day
Decay rate:       -1.8e-07 rev/day^2
Epoch rev:           01419
Checksum:              316

Satellite: LO-19
Catalog number: 20442
Epoch time:      09175.45760117
Element set:    0555
Inclination:      098.2408 deg
RA of node:       150.7636 deg
Eccentricity:    0.0012428
Arg of perigee:   141.9606 deg
Mean anomaly:     218.2471 deg
Mean motion:   14.32062565 rev/day
Decay rate:        2.1e-07 rev/day^2
Epoch rev:           01435
Checksum:              279

Satellite: AO-27
Catalog number: 22825
Epoch time:      09175.56625056
Element set:    0275
Inclination:      098.4363 deg
RA of node:       128.7578 deg
Eccentricity:    0.0007725
Arg of perigee:   237.6929 deg
Mean anomaly:     122.3504 deg
Mean motion:   14.29267387 rev/day
Decay rate:      -1.00e-06 rev/day^2
Epoch rev:           82096
Checksum:              332

Satellite: IO-26
Catalog number: 22826
Epoch time:      09176.74504781
Element set:       2
Inclination:      098.4300 deg
RA of node:       130.6439 deg
Eccentricity:    0.0008091
Arg of perigee:   232.0525 deg
Mean anomaly:     127.9928 deg
Mean motion:   14.29519950 rev/day
Decay rate:       -1.9e-07 rev/day^2
Epoch rev:           82123
Checksum:              297

Satellite: GO-32
Catalog number: 25397
Epoch time:      09175.73599878
Element set:    0927
Inclination:      098.3262 deg
RA of node:       197.6718 deg
Eccentricity:    0.0000667
Arg of perigee:   180.5458 deg
Mean anomaly:     179.5710 deg
Mean motion:   14.23160891 rev/day
Decay rate:       1.18e-06 rev/day^2
Epoch rev:           56920
Checksum:              353

Satellite: NO-44
Catalog number: 26931
Epoch time:      09175.70042414
Element set:    0202
Inclination:      067.0532 deg
RA of node:       044.9895 deg
Eccentricity:    0.0005659
Arg of perigee:   272.6391 deg
Mean anomaly:     087.4033 deg
Mean motion:   14.29560557 rev/day
Decay rate:        9.0e-07 rev/day^2
Epoch rev:           40365
Checksum:              301

Satellite: SO-50
Catalog number: 27607
Epoch time:      09175.52809685
Element set:    0918
Inclination:      064.5582 deg
RA of node:       002.7936 deg
Eccentricity:    0.0066368
Arg of perigee:   204.0590 deg
Mean anomaly:     155.7400 deg
Mean motion:   14.71442765 rev/day
Decay rate:       -8.3e-07 rev/day^2
Epoch rev:           34975
Checksum:              330

Satellite: CO-55
Catalog number: 27844
Epoch time:      09176.72554986
Element set:     608
Inclination:      098.7127 deg
RA of node:       185.7703 deg
Eccentricity:    0.0010937
Arg of perigee:   115.9668 deg
Mean anomaly:     244.2612 deg
Mean motion:   14.20643376 rev/day
Decay rate:        1.1e-07 rev/day^2
Epoch rev:           31047
Checksum:              324

